UAL487 KEWR-EHAM

Flight info

Callsign UAL487
Flight time N/A
Altitude 37000
Route MERIT DCT HFD DCT PUT DCT BOS DCT BRADD N175G PORTI/M084F400 DCT 47N050W 49N040W 51N030W 53N020W DCT MALOT DCT GISTI/N0481F410 DCT BOFUM Q37 MALUD UL975 WAL M16 DOLAS L603 LAMSO
Aircraft B772/H-SDE2E3FGHIJ5LORVWXY/LB1D1

Departure

Time 2026-04-25 16:46
Airport Newark Liberty International Airport (KEWR)

Arrival

Time N/A
Airport Amsterdam Airport Schiphol (EHAM)
Time Latitude Longitude Altitude Speed Heading
2026-04-25 14:40 40.69237 -74.17519 26 ft 0 kts 146°
2026-04-25 16:33 40.69253 -74.17530 25 ft 4 kts 172°
2026-04-25 16:33 40.69278 -74.17526 25 ft 4 kts 209°
2026-04-25 16:33 40.69300 -74.17506 26 ft 4 kts 220°
2026-04-25 16:33 40.69321 -74.17485 25 ft 4 kts 197°
2026-04-25 16:34 40.69338 -74.17487 24 ft 4 kts 147°
2026-04-25 16:34 40.69361 -74.17506 24 ft 4 kts 149°
2026-04-25 16:34 40.69384 -74.17524 25 ft 4 kts 147°
2026-04-25 16:34 40.69389 -74.17528 25 ft 0 kts 145°
2026-04-25 16:39 40.69377 -74.17516 26 ft 8 kts 145°
2026-04-25 16:39 40.69346 -74.17453 26 ft 8 kts 106°
2026-04-25 16:40 40.69334 -74.17377 26 ft 8 kts 107°
2026-04-25 16:40 40.69312 -74.17307 26 ft 8 kts 123°
2026-04-25 16:40 40.69280 -74.17243 26 ft 8 kts 122°
2026-04-25 16:40 40.69249 -74.17177 26 ft 8 kts 122°
2026-04-25 16:41 40.69224 -74.17108 26 ft 8 kts 111°
2026-04-25 16:41 40.69198 -74.17073 30 ft 8 kts 160°
2026-04-25 16:41 40.69008 -74.17171 27 ft 16 kts 206°
2026-04-25 16:42 40.68909 -74.17234 27 ft 16 kts 205°
2026-04-25 16:42 40.68803 -74.17301 27 ft 19 kts 205°
2026-04-25 16:42 40.68678 -74.17381 28 ft 21 kts 206°
2026-04-25 16:42 40.68536 -74.17472 27 ft 24 kts 206°
2026-04-25 16:43 40.68376 -74.17574 27 ft 27 kts 205°
2026-04-25 16:43 40.68203 -74.17683 31 ft 28 kts 206°
2026-04-25 16:43 40.68026 -74.17796 28 ft 28 kts 205°
2026-04-25 16:43 40.67849 -74.17909 27 ft 28 kts 205°
2026-04-25 16:44 40.67702 -74.18002 26 ft 15 kts 206°
2026-04-25 16:44 40.67635 -74.18045 27 ft 7 kts 202°
2026-04-25 16:44 40.67592 -74.18028 27 ft 7 kts 147°
2026-04-25 16:44 40.67562 -74.17981 27 ft 7 kts 120°
2026-04-25 16:45 40.67563 -74.17934 27 ft 1 kts 47°
2026-04-25 16:45 40.67577 -74.17923 26 ft 4 kts 29°
2026-04-25 16:45 40.67717 -74.17832 30 ft 52 kts 26°
2026-04-25 16:45 40.68260 -74.17486 27 ft 119 kts 25°
2026-04-25 16:46 40.69174 -74.16910 114 ft 161 kts 27°
2026-04-25 16:46 40.70195 -74.16275 716 ft 166 kts 31°
2026-04-25 16:46 40.71172 -74.15403 1334 ft 172 kts 44°
2026-04-25 16:46 40.71489 -74.15067 1518 ft 176 kts 43°
2026-04-25 16:47 40.73427 -74.13469 1921 ft 220 kts 30°
2026-04-25 16:47 40.74872 -74.12665 2369 ft 233 kts 27°
2026-04-25 16:47 40.76433 -74.11792 2637 ft 253 kts 28°
2026-04-25 16:47 40.78078 -74.10867 3236 ft 260 kts 27°
2026-04-25 16:48 40.79765 -74.09899 3823 ft 267 kts 27°
2026-04-25 16:48 40.81489 -74.08870 4399 ft 275 kts 27°
2026-04-25 16:48 40.83207 -74.07781 4923 ft 272 kts 32°
2026-04-25 16:48 40.84208 -74.06768 5015 ft 279 kts 50°
2026-04-25 16:49 40.85241 -74.04616 5023 ft 276 kts 68°
2026-04-25 16:49 40.86067 -74.02323 5471 ft 280 kts 66°
2026-04-25 16:49 40.86877 -73.99958 6032 ft 286 kts 66°
2026-04-25 16:49 40.87639 -73.97516 6679 ft 288 kts 67°
2026-04-25 16:50 40.88370 -73.95048 7319 ft 289 kts 67°
2026-04-25 16:50 40.89092 -73.92562 7948 ft 291 kts 67°
2026-04-25 16:50 40.89821 -73.90051 8533 ft 293 kts 67°
2026-04-25 16:50 40.90553 -73.87523 9100 ft 296 kts 67°
2026-04-25 16:51 40.91286 -73.84977 9692 ft 297 kts 67°
2026-04-25 16:51 40.92019 -73.82421 10033 ft 301 kts 67°
2026-04-25 16:51 40.92793 -73.79825 9992 ft 301 kts 61°
2026-04-25 16:51 40.93537 -73.78296 10007 ft 297 kts 49°
2026-04-25 16:52 40.95411 -73.75613 10015 ft 296 kts 42°
2026-04-25 16:52 40.96868 -73.73691 10012 ft 296 kts 42°
2026-04-25 16:52 40.98347 -73.71723 10108 ft 309 kts 43°
2026-04-25 16:52 40.99887 -73.69626 10228 ft 326 kts 44°
2026-04-25 16:53 41.03162 -73.65031 10615 ft 358 kts 44°
2026-04-25 16:53 41.04876 -73.62573 11074 ft 368 kts 45°
2026-04-25 16:53 41.06621 -73.60054 11698 ft 374 kts 44°
2026-04-25 16:54 41.08384 -73.57495 12159 ft 378 kts 44°
2026-04-25 16:54 41.10165 -73.54900 12906 ft 383 kts 44°
2026-04-25 16:54 41.11964 -73.52273 13733 ft 386 kts 44°
2026-04-25 16:54 41.13779 -73.49619 14411 ft 391 kts 44°
2026-04-25 16:55 41.15624 -73.46923 15054 ft 397 kts 44°
2026-04-25 16:55 41.17488 -73.44194 15687 ft 402 kts 44°
2026-04-25 16:55 41.19356 -73.41457 16319 ft 407 kts 44°
2026-04-25 16:55 41.21265 -73.38655 16983 ft 411 kts 44°
2026-04-25 16:56 41.23196 -73.35822 17552 ft 417 kts 44°
2026-04-25 16:56 41.25156 -73.32944 18101 ft 424 kts 44°
2026-04-25 16:56 41.27148 -73.30014 18623 ft 429 kts 43°
2026-04-25 16:56 41.29158 -73.27053 19148 ft 433 kts 43°
2026-04-25 16:57 41.31178 -73.24074 19745 ft 433 kts 43°
2026-04-25 16:57 41.32518 -73.22097 20155 ft 434 kts 42°
2026-04-25 16:57 41.35223 -73.18106 20916 ft 435 kts 42°
2026-04-25 16:57 41.37232 -73.15105 21452 ft 439 kts 44°
2026-04-25 16:58 41.39099 -73.11831 21963 ft 446 kts 51°
2026-04-25 16:58 41.40718 -73.08263 22478 ft 451 kts 54°
2026-04-25 16:58 41.42292 -73.04634 23015 ft 454 kts 54°
2026-04-25 16:58 41.43871 -73.00987 23551 ft 456 kts 54°
2026-04-25 16:59 41.45467 -72.97315 24012 ft 458 kts 53°
2026-04-25 16:59 41.47070 -72.93646 24437 ft 460 kts 53°
2026-04-25 16:59 41.48693 -72.89945 24857 ft 462 kts 53°
2026-04-25 16:59 41.50322 -72.86236 25273 ft 465 kts 53°
2026-04-25 17:00 41.51962 -72.82503 25674 ft 467 kts 53°
2026-04-25 17:00 41.53607 -72.78749 26095 ft 469 kts 53°
2026-04-25 17:00 41.55259 -72.74978 26529 ft 471 kts 53°
2026-04-25 17:00 41.56915 -72.71195 26952 ft 473 kts 53°
2026-04-25 17:01 41.58577 -72.67390 27349 ft 476 kts 53°
2026-04-25 17:01 41.60248 -72.63557 27744 ft 478 kts 53°
2026-04-25 17:01 41.61925 -72.59709 28184 ft 480 kts 52°
2026-04-25 17:01 41.63605 -72.55844 28569 ft 482 kts 52°
2026-04-25 17:02 41.65302 -72.51976 28982 ft 483 kts 51°
2026-04-25 17:02 41.67031 -72.48123 29156 ft 485 kts 51°
2026-04-25 17:02 41.68792 -72.44245 29188 ft 492 kts 51°
2026-04-25 17:03 41.72408 -72.36283 29348 ft 507 kts 51°
2026-04-25 17:03 41.76089 -72.28099 29607 ft 517 kts 52°
2026-04-25 17:03 41.77934 -72.23965 29941 ft 517 kts 51°
2026-04-25 17:04 41.79772 -72.19839 30357 ft 514 kts 51°
2026-04-25 17:04 41.81571 -72.15791 30465 ft 506 kts 51°
2026-04-25 17:04 41.83333 -72.11809 30426 ft 489 kts 51°
2026-04-25 17:05 41.86759 -72.04103 30387 ft 478 kts 50°
2026-04-25 17:05 41.91892 -71.92570 30396 ft 481 kts 51°
2026-04-25 17:06 41.95237 -71.84978 29697 ft 464 kts 50°
2026-04-25 17:06 41.96949 -71.81224 29409 ft 475 kts 49°
2026-04-25 17:06 41.98744 -71.77456 29214 ft 482 kts 48°
2026-04-25 17:07 42.02451 -71.69786 29298 ft 498 kts 49°
2026-04-25 17:07 42.06260 -71.61831 29451 ft 512 kts 49°
2026-04-25 17:08 42.08185 -71.57770 29611 ft 516 kts 49°
2026-04-25 17:08 42.10105 -71.53693 30181 ft 510 kts 50°
2026-04-25 17:08 42.11982 -71.49687 30530 ft 509 kts 50°
2026-04-25 17:08 42.13930 -71.45592 29513 ft 533 kts 50°
2026-04-25 17:09 42.15982 -71.41343 28827 ft 548 kts 49°
2026-04-25 17:09 42.18049 -71.37154 29243 ft 521 kts 49°
2026-04-25 17:09 42.19968 -71.33211 29038 ft 504 kts 50°
2026-04-25 17:09 42.21772 -71.29257 29103 ft 485 kts 50°
2026-04-25 17:10 42.25299 -71.21625 29137 ft 478 kts 49°
2026-04-25 17:10 42.28657 -71.14369 29153 ft 480 kts 50°
2026-04-25 17:11 42.32183 -71.06691 29154 ft 482 kts 50°
2026-04-25 17:11 42.35504 -70.98776 29146 ft 490 kts 57°
2026-04-25 17:12 42.37782 -70.90002 29159 ft 497 kts 66°
2026-04-25 17:12 42.39674 -70.80996 29173 ft 497 kts 66°
2026-04-25 17:13 42.40941 -70.74982 29139 ft 497 kts 66°
2026-04-25 17:13 42.43494 -70.63038 29137 ft 496 kts 66°
2026-04-25 17:14 42.45423 -70.54060 29160 ft 496 kts 66°